contact:dominique.lefevre@mio.osupytheas.fr, maurice.libes@osupytheas.fr, didier.mallarino@osupytheas.fr
Project:EMSO http://www.emso-fr.org/EMSO-France
Depth: 2436.0 m
Title:EMSO Ligure Ouest : Data MII capteur AQUADOPP
Date,Latitude,Longitude,X_East,Y_North,Z_Up,Amplitude_X,Amplitude_Y,Amplitude_Z,Batterie,SoundSpeed,Heading,Pitch,Roll,Pressure,TIS,Speed,Direction
, degrees North, degrees East, m.s-1, m.s-1,m.s-1, 1, 1, 1, Volt, m.s-1, degree, degree, degree, dbar, degree_C, m.s-1, degree
2023-07-29T00:04:03,42.805,6.029,0.009,-0.024,-0.052,102.0,102.0,102.0,13.4,1505.2,341.8,-0.7,1.8,2471.444,13.28,0.025,159.4
2023-07-29T00:07:03,42.805,6.029,0.003,-0.026,-0.065,103.0,101.0,102.0,13.3,1505.2,333.4,-0.8,1.8,2471.472,13.28,0.026,173.4
2023-07-29T00:10:03,42.805,6.029,-0.003,-0.049,-0.05,102.0,102.0,101.0,13.4,1505.2,338.0,-0.8,1.8,2471.495,13.28,0.049,183.5
2023-07-29T00:13:03,42.805,6.029,-0.003,-0.018,-0.019,103.0,102.0,101.0,13.4,1505.2,338.3,-0.8,1.8,2471.413,13.29,0.018,189.5
2023-07-29T00:16:03,42.805,6.029,-0.002,-0.044,-0.014,103.0,102.0,102.0,13.4,1505.2,335.9,-0.8,1.8,2471.401,13.29,0.044,182.6
2023-07-29T00:19:03,42.805,6.029,0.007,-0.023,-0.028,103.0,102.0,101.0,13.4,1505.2,354.6,-0.8,1.8,2471.408,13.29,0.024,163.1
2023-07-29T00:22:03,42.805,6.029,0.002,-0.043,-0.03,103.0,102.0,102.0,13.3,1505.2,335.0,-0.7,1.8,2471.428,13.29,0.043,177.3
2023-07-29T00:25:03,42.805,6.029,-0.012,-0.02,-0.049,102.0,104.0,101.0,13.4,1505.2,328.8,-0.8,1.8,2471.423,13.29,0.023,211.0
2023-07-29T00:28:03,42.805,6.029,-0.006,-0.036,-0.047,102.0,102.0,102.0,13.4,1505.2,341.5,-0.8,1.8,2471.413,13.29,0.036,189.5
2023-07-29T00:31:03,42.805,6.029,0.003,-0.032,-0.038,103.0,102.0,101.0,13.4,1505.2,331.1,-0.7,1.8,2471.39,13.29,0.032,174.6
2023-07-29T00:34:03,42.805,6.029,-0.004,-0.019,-0.02,103.0,102.0,101.0,13.3,1505.2,345.1,-0.8,1.8,2471.423,13.29,0.019,191.9
2023-07-29T00:37:03,42.805,6.029,-0.001,-0.034,-0.045,103.0,102.0,101.0,13.3,1505.2,337.0,-0.7,1.8,2471.417,13.29,0.034,181.7
2023-07-29T00:40:03,42.805,6.029,-0.007,-0.025,-0.06,102.0,104.0,102.0,13.3,1505.2,337.7,-0.8,1.8,2471.432,13.29,0.025,195.6
2023-07-29T00:43:03,42.805,6.029,-0.009,-0.016,-0.031,103.0,102.0,101.0,13.4,1505.2,334.8,-0.8,1.8,2471.44,13.29,0.018,209.4
2023-07-29T00:46:03,42.805,6.029,-0.022,-0.024,-0.057,101.0,103.0,101.0,13.4,1505.2,348.2,-0.8,1.8,2471.456,13.29,0.032,222.5
2023-07-29T00:49:03,42.805,6.029,-0.005,-0.011,-0.02,103.0,104.0,101.0,13.4,1505.2,341.9,-0.7,1.8,2471.381,13.29,0.012,204.4
2023-07-29T00:52:03,42.805,6.029,-0.017,-0.042,-0.049,104.0,102.0,101.0,13.3,1505.2,343.4,-0.7,1.8,2471.381,13.29,0.045,202.0
2023-07-29T00:55:03,42.805,6.029,-0.024,-0.008,-0.044,105.0,100.0,101.0,13.3,1505.2,336.5,-0.8,1.8,2471.436,13.29,0.025,251.6
2023-07-29T00:58:03,42.805,6.029,-0.011,-0.016,-0.034,102.0,103.0,102.0,13.4,1505.2,338.7,-0.7,1.8,2471.412,13.29,0.019,214.5
2023-07-29T01:04:03,42.805,6.029,-0.01,-0.013,-0.012,105.0,104.0,103.0,13.4,1505.2,341.2,-0.8,1.8,2471.507,13.28,0.016,217.6
2023-07-29T01:07:03,42.805,6.029,-0.016,-0.014,-0.049,103.0,103.0,102.0,13.3,1505.2,343.2,-0.8,1.8,2471.457,13.28,0.021,228.8
2023-07-29T01:10:03,42.805,6.029,-0.018,-0.011,-0.012,103.0,102.0,101.0,13.3,1505.2,352.4,-0.8,1.8,2471.454,13.28,0.021,238.6
2023-07-29T01:13:03,42.805,6.029,-0.006,-0.024,-0.047,103.0,104.0,101.0,13.4,1505.2,336.1,-0.8,1.8,2471.456,13.29,0.024,194.0
2023-07-29T01:16:03,42.805,6.029,0.006,-0.014,-0.023,102.0,103.0,101.0,13.3,1505.2,327.7,-0.8,1.8,2471.44,13.29,0.015,156.8
2023-07-29T01:19:03,42.805,6.029,-0.024,-0.016,-0.027,103.0,102.0,102.0,13.4,1505.2,334.8,-0.8,1.8,2471.428,13.29,0.028,236.3
2023-07-29T01:22:02,42.805,6.029,0.004,-0.044,-0.068,103.0,102.0,101.0,13.4,1505.2,338.2,-0.8,1.8,2471.389,13.29,0.044,174.8
2023-07-29T01:25:03,42.805,6.029,-0.011,-0.018,-0.013,103.0,101.0,102.0,13.4,1505.2,344.4,-0.8,1.8,2471.446,13.29,0.021,211.4
2023-07-29T01:28:03,42.805,6.029,-0.001,-0.023,-0.032,103.0,102.0,100.0,13.4,1505.2,348.9,-0.8,1.8,2471.452,13.29,0.023,182.5
2023-07-29T01:31:03,42.805,6.029,0.016,-0.027,-0.016,103.0,102.0,102.0,13.4,1505.2,332.9,-0.8,1.8,2471.423,13.29,0.031,149.3
2023-07-29T01:34:03,42.805,6.029,-0.018,-0.023,-0.008,103.0,102.0,101.0,13.4,1505.2,347.4,-0.8,1.8,2471.419,13.29,0.029,218.0
2023-07-29T01:37:03,42.805,6.029,-0.006,-0.016,-0.015,102.0,102.0,101.0,13.4,1505.2,328.3,-0.7,1.8,2471.434,13.29,0.017,200.6
2023-07-29T01:40:03,42.805,6.029,-0.004,-0.026,-0.044,102.0,103.0,100.0,13.4,1505.2,342.9,-0.7,1.8,2471.44,13.29,0.026,188.7
2023-07-29T01:43:03,42.805,6.029,-0.012,-0.019,-0.037,104.0,100.0,102.0,13.4,1505.2,331.5,-0.8,1.8,2471.435,13.29,0.022,212.3
2023-07-29T01:46:03,42.805,6.029,-0.019,-0.025,-0.083,101.0,103.0,103.0,13.4,1505.2,341.2,-0.7,1.8,2471.455,13.29,0.031,217.2
2023-07-29T01:49:03,42.805,6.029,-0.017,-0.024,-0.012,104.0,102.0,100.0,13.3,1505.2,344.8,-0.8,1.8,2471.46,13.29,0.029,215.3
2023-07-29T01:52:03,42.805,6.029,-0.001,-0.034,-0.038,102.0,101.0,102.0,13.3,1505.2,337.1,-0.8,1.8,2471.438,13.29,0.034,181.7
2023-07-29T01:55:03,42.805,6.029,-0.031,-0.024,-0.038,103.0,103.0,101.0,13.4,1505.2,346.5,-0.8,1.8,2471.404,13.29,0.039,232.3
2023-07-29T01:58:03,42.805,6.029,-0.004,-0.013,-0.021,103.0,101.0,101.0,13.4,1505.2,351.5,-0.8,1.8,2471.425,13.29,0.013,197.1
2023-07-29T02:04:03,42.805,6.029,-0.034,-0.01,-0.044,102.0,103.0,102.0,13.4,1505.2,340.6,-0.8,1.8,2471.473,13.28,0.035,253.6
2023-07-29T02:07:03,42.805,6.029,0.0,-0.032,-0.03,103.0,101.0,103.0,13.3,1505.2,340.5,-0.7,1.8,2471.489,13.28,0.032,180.0
2023-07-29T02:10:03,42.805,6.029,-0.008,-0.038,-0.039,102.0,102.0,102.0,13.4,1505.2,335.4,-0.7,1.8,2471.483,13.29,0.038,191.9
2023-07-29T02:13:03,42.805,6.029,-0.006,0.003,-0.027,103.0,102.0,101.0,13.4,1505.2,345.7,-0.7,1.8,2471.418,13.29,0.006,296.6
2023-07-29T02:16:03,42.805,6.029,-0.022,-0.022,-0.035,103.0,101.0,102.0,13.3,1505.2,347.3,-0.8,1.8,2471.437,13.29,0.031,225.0
2023-07-29T02:19:03,42.805,6.029,-0.005,-0.008,-0.042,102.0,102.0,102.0,13.4,1505.2,344.5,-0.8,1.8,2471.445,13.29,0.009,212.0
2023-07-29T02:22:03,42.805,6.029,-0.01,0.007,-0.044,103.0,102.0,102.0,13.4,1505.2,334.6,-0.7,1.8,2471.471,13.29,0.012,305.0
2023-07-29T02:25:03,42.805,6.029,-0.015,0.012,-0.039,102.0,102.0,102.0,13.3,1505.2,341.9,-0.7,1.8,2471.367,13.29,0.019,308.7
2023-07-29T02:28:03,42.805,6.029,-0.014,-0.029,-0.058,102.0,102.0,102.0,13.4,1505.2,350.3,-0.7,1.8,2471.47,13.29,0.032,205.8
2023-07-29T02:31:03,42.805,6.029,-0.002,-0.001,-0.059,103.0,101.0,102.0,13.4,1505.2,335.1,-0.8,1.8,2471.417,13.29,0.002,243.4
2023-07-29T02:34:03,42.805,6.029,-0.014,-0.022,-0.007,103.0,103.0,101.0,13.4,1505.2,346.2,-0.8,1.8,2471.43,13.29,0.026,212.5
2023-07-29T02:37:03,42.805,6.029,0.0,0.004,-0.034,103.0,102.0,101.0,13.3,1505.2,350.1,-0.7,1.8,2471.399,13.29,0.004,0.0
2023-07-29T02:40:03,42.805,6.029,-0.009,-0.022,-0.075,103.0,103.0,101.0,13.4,1505.2,321.0,-0.7,1.8,2471.498,13.29,0.023,202.2
2023-07-29T02:43:03,42.805,6.029,-0.004,-0.007,-0.027,103.0,101.0,103.0,13.4,1505.2,336.5,-0.8,1.9,2471.46,13.29,0.008,209.7
2023-07-29T02:46:03,42.805,6.029,-0.01,0.011,-0.026,103.0,101.0,102.0,13.4,1505.2,355.6,-0.8,1.8,2471.421,13.29,0.014,317.7
2023-07-29T02:49:03,42.805,6.029,-0.016,0.012,-0.053,102.0,103.0,101.0,13.4,1505.2,340.4,-0.8,1.8,2471.449,13.29,0.02,306.9
2023-07-29T02:52:03,42.805,6.029,0.0,-0.023,-0.046,103.0,103.0,100.0,13.3,1505.2,344.2,-0.8,1.8,2471.433,13.29,0.023,180.0
2023-07-29T02:55:03,42.805,6.029,-0.005,-0.007,0.0,103.0,101.0,101.0,13.4,1505.2,336.3,-0.8,1.8,2471.433,13.29,0.008,215.5
2023-07-29T02:58:03,42.805,6.029,-0.009,-0.017,-0.043,102.0,103.0,101.0,13.4,1505.2,342.3,-0.8,1.9,2471.442,13.29,0.019,207.9
2023-07-29T03:04:03,42.805,6.029,0.0,-0.001,-0.017,102.0,102.0,102.0,13.3,1505.2,350.9,-0.8,1.9,2471.472,13.28,0.001,180.0
2023-07-29T03:07:03,42.805,6.029,0.001,-0.01,0.008,103.0,101.0,102.0,13.4,1505.2,350.5,-0.8,1.9,2471.473,13.28,0.01,174.3
2023-07-29T03:10:03,42.805,6.029,0.001,-0.012,-0.036,102.0,104.0,102.0,13.4,1505.2,347.5,-0.7,1.8,2471.447,13.29,0.012,175.2
2023-07-29T03:13:03,42.805,6.029,-0.008,-0.011,-0.016,101.0,102.0,102.0,13.3,1505.2,348.9,-0.7,1.8,2471.455,13.29,0.013,216.0
2023-07-29T03:16:03,42.805,6.029,-0.007,-0.008,-0.004,103.0,102.0,102.0,13.4,1505.2,343.0,-0.8,1.8,2471.442,13.29,0.01,221.2
2023-07-29T03:19:03,42.805,6.029,-0.008,0.0,-0.025,104.0,102.0,101.0,13.4,1505.2,353.1,-0.8,1.8,2471.452,13.29,0.008,270.0
2023-07-29T03:22:03,42.805,6.029,-0.003,-0.007,-0.015,103.0,103.0,101.0,13.3,1505.2,323.9,-0.8,1.8,2471.448,13.29,0.007,203.2
2023-07-29T03:25:03,42.805,6.029,-0.018,0.022,-0.007,103.0,102.0,102.0,13.4,1505.2,328.2,-0.8,1.8,2471.434,13.29,0.028,320.7
2023-07-29T03:28:03,42.805,6.029,-0.008,0.006,-0.041,104.0,101.0,101.0,13.3,1505.2,331.1,-0.8,1.8,2471.394,13.29,0.01,306.9
2023-07-29T03:31:03,42.805,6.029,-0.032,-0.012,-0.039,101.0,103.0,102.0,13.3,1505.2,332.0,-0.8,1.8,2471.467,13.29,0.034,249.4
2023-07-29T03:34:03,42.805,6.029,-0.005,-0.022,-0.021,103.0,103.0,102.0,13.4,1505.2,350.7,-0.7,1.8,2471.473,13.29,0.022,192.8
2023-07-29T03:37:03,42.805,6.029,-0.022,0.008,-0.016,104.0,101.0,101.0,13.3,1505.2,324.1,-0.8,1.8,2471.444,13.29,0.023,290.0
2023-07-29T03:40:03,42.805,6.029,0.011,-0.029,-0.041,103.0,101.0,101.0,13.4,1505.2,330.6,-0.8,1.9,2471.461,13.29,0.031,159.2
2023-07-29T03:43:03,42.805,6.029,-0.016,0.004,-0.029,103.0,101.0,102.0,13.4,1505.2,352.7,-0.8,1.8,2471.426,13.29,0.016,284.0
2023-07-29T03:46:03,42.805,6.029,-0.018,-0.013,-0.019,103.0,102.0,101.0,13.4,1505.2,321.7,-0.7,1.8,2471.438,13.29,0.022,234.2
2023-07-29T03:49:03,42.805,6.029,-0.024,-0.011,-0.049,104.0,102.0,102.0,13.3,1505.2,335.8,-0.8,1.8,2471.417,13.29,0.026,245.4
2023-07-29T03:52:03,42.805,6.029,0.019,-0.008,-0.043,102.0,103.0,100.0,13.4,1505.2,330.1,-0.8,1.8,2471.441,13.29,0.02,112.8
2023-07-29T03:55:03,42.805,6.029,-0.028,-0.011,-0.069,104.0,103.0,101.0,13.3,1505.2,344.2,-0.8,1.8,2471.438,13.29,0.03,248.6
2023-07-29T03:58:03,42.805,6.029,-0.001,-0.017,-0.039,102.0,102.0,101.0,13.3,1505.2,338.6,-0.8,1.8,2471.458,13.29,0.017,183.4
2023-07-29T04:04:03,42.805,6.029,-0.007,-0.008,-0.037,103.0,103.0,100.0,13.4,1505.2,353.7,-0.8,1.8,2471.459,13.28,0.01,221.2
2023-07-29T04:07:03,42.805,6.029,-0.016,-0.01,-0.021,103.0,102.0,102.0,13.4,1505.2,322.2,-0.7,1.9,2471.475,13.28,0.018,238.0
2023-07-29T04:10:03,42.805,6.029,0.005,-0.009,-0.017,104.0,102.0,101.0,13.4,1505.2,335.0,-0.8,1.8,2471.47,13.29,0.01,150.9
2023-07-29T04:13:03,42.805,6.029,0.018,-0.005,-0.028,103.0,103.0,101.0,13.3,1505.2,347.6,-0.8,1.8,2471.441,13.29,0.018,105.5
2023-07-29T04:16:03,42.805,6.029,-0.007,-0.017,-0.035,103.0,101.0,101.0,13.4,1505.2,345.2,-0.7,1.8,2471.45,13.29,0.018,202.4
2023-07-29T04:19:03,42.805,6.029,-0.025,0.009,-0.059,103.0,102.0,100.0,13.3,1505.2,351.5,-0.8,1.8,2471.502,13.29,0.026,289.8
2023-07-29T04:22:03,42.805,6.029,0.014,0.0,0.013,101.0,103.0,102.0,13.4,1505.2,340.3,-0.8,1.8,2471.447,13.29,0.014,90.0
2023-07-29T04:25:03,42.805,6.029,0.005,-0.018,-0.047,102.0,101.0,101.0,13.3,1505.2,347.0,-0.8,1.8,2471.467,13.29,0.018,164.5
2023-07-29T04:28:03,42.805,6.029,-0.02,-0.033,-0.04,103.0,103.0,101.0,13.4,1505.2,344.5,-0.7,1.8,2471.46,13.29,0.038,211.2
2023-07-29T04:31:03,42.805,6.029,0.0,-0.011,-0.016,101.0,103.0,102.0,13.4,1505.2,350.1,-0.8,1.8,2471.459,13.29,0.011,180.0
2023-07-29T04:34:03,42.805,6.029,-0.006,-0.012,-0.071,103.0,102.0,102.0,13.4,1505.2,341.5,-0.8,1.8,2471.41,13.29,0.013,206.6
2023-07-29T04:37:03,42.805,6.029,0.029,-0.03,-0.035,102.0,103.0,101.0,13.3,1505.2,343.8,-0.7,1.8,2471.454,13.29,0.041,136.0
2023-07-29T04:40:03,42.805,6.029,0.02,-0.025,-0.015,103.0,102.0,101.0,13.4,1505.2,351.8,-0.8,1.8,2471.441,13.29,0.032,141.3
2023-07-29T04:43:03,42.805,6.029,-0.009,-0.005,-0.015,103.0,102.0,101.0,13.4,1505.2,330.9,-0.8,1.8,2471.44,13.29,0.01,240.9
2023-07-29T04:46:03,42.805,6.029,0.016,-0.013,-0.021,102.0,103.0,102.0,13.4,1505.2,344.8,-0.7,1.8,2471.471,13.29,0.02,129.1
2023-07-29T04:49:03,42.805,6.029,-0.001,-0.025,-0.051,104.0,101.0,101.0,13.3,1505.2,340.6,-0.8,1.8,2471.404,13.29,0.025,182.3
2023-07-29T04:52:03,42.805,6.029,0.012,-0.028,-0.041,101.0,101.0,102.0,13.3,1505.2,344.8,-0.8,1.8,2471.446,13.29,0.03,156.8
2023-07-29T04:55:03,42.805,6.029,0.004,0.001,-0.043,103.0,103.0,102.0,13.3,1505.2,343.0,-0.8,1.8,2471.446,13.29,0.004,76.0
2023-07-29T04:58:03,42.805,6.029,0.003,-0.003,-0.021,103.0,103.0,103.0,13.4,1505.2,334.3,-0.7,1.8,2471.42,13.29,0.004,135.0
2023-07-29T05:04:03,42.805,6.029,0.015,-0.015,-0.059,101.0,102.0,101.0,13.4,1505.2,332.4,-0.8,1.8,2471.475,13.28,0.021,135.0
2023-07-29T05:07:03,42.805,6.029,-0.006,-0.015,-0.034,102.0,102.0,102.0,13.3,1505.2,336.6,-0.8,1.8,2471.464,13.28,0.016,201.8
2023-07-29T05:10:03,42.805,6.029,0.001,-0.02,-0.053,102.0,102.0,101.0,13.3,1505.2,349.9,-0.8,1.8,2471.486,13.29,0.02,177.1
2023-07-29T05:13:03,42.805,6.029,0.004,-0.029,-0.058,102.0,102.0,101.0,13.4,1505.2,336.6,-0.8,1.8,2471.465,13.29,0.029,172.2
2023-07-29T05:16:03,42.805,6.029,0.0,-0.011,-0.027,102.0,103.0,101.0,13.4,1505.2,343.9,-0.8,1.8,2471.486,13.29,0.011,180.0
2023-07-29T05:19:03,42.805,6.029,-0.015,-0.01,-0.057,102.0,101.0,101.0,13.4,1505.2,332.5,-0.8,1.8,2471.448,13.29,0.018,236.3
2023-07-29T05:22:03,42.805,6.029,0.009,-0.005,-0.02,103.0,101.0,102.0,13.4,1505.2,330.2,-0.8,1.8,2471.469,13.29,0.01,119.1
2023-07-29T05:25:03,42.805,6.029,-0.012,-0.01,-0.031,101.0,103.0,102.0,13.4,1505.2,330.1,-0.7,1.8,2471.445,13.29,0.015,230.2
2023-07-29T05:28:03,42.805,6.029,0.009,-0.001,-0.032,104.0,103.0,101.0,13.4,1505.2,337.9,-0.8,1.8,2471.435,13.29,0.009,96.3
2023-07-29T05:31:03,42.805,6.029,0.01,-0.013,-0.034,103.0,101.0,102.0,13.4,1505.2,345.6,-0.8,1.8,2471.425,13.29,0.016,142.4
2023-07-29T05:34:03,42.805,6.029,0.002,0.0,-0.048,103.0,103.0,101.0,13.3,1505.2,351.8,-0.7,1.8,2471.448,13.29,0.002,90.0
2023-07-29T05:37:03,42.805,6.029,0.006,-0.021,-0.058,103.0,102.0,101.0,13.4,1505.2,347.4,-0.7,1.8,2471.409,13.29,0.021,164.1
2023-07-29T05:40:03,42.805,6.029,-0.005,-0.016,-0.025,102.0,103.0,102.0,13.4,1505.2,355.6,-0.8,1.8,2471.435,13.29,0.016,197.4
2023-07-29T05:43:03,42.805,6.029,0.015,-0.021,-0.039,102.0,102.0,102.0,13.4,1505.2,329.9,-0.8,1.8,2471.415,13.29,0.025,144.5
2023-07-29T05:46:03,42.805,6.029,0.014,0.003,-0.031,102.0,103.0,101.0,13.4,1505.2,327.7,-0.8,1.8,2471.428,13.29,0.014,77.9
2023-07-29T05:49:03,42.805,6.029,0.007,-0.027,-0.01,102.0,101.0,102.0,13.3,1505.2,351.5,-0.8,1.8,2471.391,13.29,0.027,165.5
2023-07-29T05:52:03,42.805,6.029,0.003,0.006,-0.007,102.0,101.0,103.0,13.4,1505.2,324.3,-0.8,1.8,2471.422,13.29,0.006,26.6
2023-07-29T05:55:03,42.805,6.029,0.004,-0.014,-0.023,102.0,102.0,101.0,13.3,1505.2,340.4,-0.8,1.8,2471.422,13.29,0.014,164.1
2023-07-29T05:58:03,42.805,6.029,0.01,-0.019,-0.066,102.0,102.0,101.0,13.3,1505.2,332.9,-0.7,1.8,2471.413,13.29,0.021,152.2
2023-07-29T06:04:03,42.805,6.029,-0.004,0.007,-0.057,103.0,102.0,102.0,13.4,1505.2,336.9,-0.7,1.8,2471.448,13.28,0.008,330.3
2023-07-29T06:07:03,42.805,6.029,0.018,-0.005,-0.006,103.0,102.0,101.0,13.3,1505.2,322.5,-0.7,1.8,2471.461,13.28,0.018,105.5
2023-07-29T06:10:03,42.805,6.029,0.013,-0.009,0.003,102.0,102.0,101.0,13.4,1505.2,345.4,-0.8,1.8,2471.461,13.29,0.015,124.7
2023-07-29T06:13:03,42.805,6.029,0.009,-0.002,-0.022,103.0,102.0,101.0,13.3,1505.2,340.0,-0.8,1.8,2471.44,13.29,0.009,102.5
2023-07-29T06:16:03,42.805,6.029,-0.009,-0.003,-0.045,103.0,102.0,102.0,13.3,1505.2,329.4,-0.7,1.8,2471.459,13.29,0.009,251.6
2023-07-29T06:19:03,42.805,6.029,0.015,-0.008,-0.018,103.0,103.0,101.0,13.4,1505.2,342.3,-0.7,1.8,2471.42,13.29,0.017,118.1
2023-07-29T06:22:03,42.805,6.029,0.002,0.015,-0.012,103.0,102.0,101.0,13.3,1505.2,324.8,-0.7,1.8,2471.416,13.29,0.015,7.6
2023-07-29T06:25:03,42.805,6.029,-0.001,-0.005,-0.024,102.0,102.0,101.0,13.4,1505.2,323.1,-0.7,1.8,2471.424,13.29,0.005,191.3
2023-07-29T06:28:03,42.805,6.029,-0.006,-0.027,-0.077,102.0,102.0,101.0,13.3,1505.2,334.9,-0.8,1.8,2471.422,13.29,0.027,192.5
2023-07-29T06:31:03,42.805,6.029,0.012,-0.024,-0.034,102.0,102.0,102.0,13.4,1505.2,353.4,-0.7,1.8,2471.45,13.29,0.026,153.4
2023-07-29T06:34:03,42.805,6.029,0.002,-0.015,-0.047,103.0,104.0,102.0,13.3,1505.2,331.3,-0.8,1.8,2471.409,13.29,0.015,172.4
2023-07-29T06:37:03,42.805,6.029,-0.014,-0.004,-0.064,102.0,102.0,101.0,13.4,1505.2,321.4,-0.8,1.8,2471.45,13.29,0.014,254.1
2023-07-29T06:40:03,42.805,6.029,0.001,-0.023,-0.021,103.0,102.0,102.0,13.4,1505.2,335.1,-0.8,1.8,2471.409,13.29,0.023,177.5
2023-07-29T06:43:03,42.805,6.029,0.017,-0.013,0.0,102.0,102.0,102.0,13.4,1505.2,347.0,-0.8,1.8,2471.428,13.29,0.021,127.4
2023-07-29T06:46:03,42.805,6.029,0.028,-0.016,-0.03,103.0,103.0,101.0,13.4,1505.2,344.6,-0.8,1.8,2471.419,13.29,0.032,119.7
2023-07-29T06:49:03,42.805,6.029,0.011,-0.019,-0.031,103.0,102.0,102.0,13.3,1505.2,353.0,-0.8,1.8,2471.392,13.29,0.021,149.9
2023-07-29T06:52:03,42.805,6.029,0.009,-0.009,-0.05,103.0,102.0,101.0,13.4,1505.2,324.6,-0.7,1.8,2471.445,13.29,0.012,135.0
2023-07-29T06:55:03,42.805,6.029,0.016,-0.018,-0.032,103.0,103.0,101.0,13.4,1505.2,344.8,-0.8,1.8,2471.392,13.29,0.024,138.4
2023-07-29T06:58:03,42.805,6.029,0.003,-0.005,-0.027,104.0,103.0,100.0,13.4,1505.2,329.3,-0.8,1.8,2471.373,13.29,0.005,149.0
2023-07-29T07:04:03,42.805,6.029,0.012,-0.006,-0.013,104.0,103.0,102.0,13.4,1505.2,325.5,-0.8,1.8,2471.455,13.28,0.013,116.6
2023-07-29T07:07:03,42.805,6.029,0.01,-0.019,-0.047,103.0,102.0,101.0,13.3,1505.2,332.9,-0.8,1.8,2471.417,13.28,0.021,152.2
2023-07-29T07:10:03,42.805,6.029,0.016,-0.005,-0.003,103.0,101.0,101.0,13.4,1505.2,333.4,-0.8,1.8,2471.442,13.29,0.016,107.4
2023-07-29T07:13:03,42.805,6.029,0.013,-0.015,-0.027,103.0,104.0,100.0,13.4,1505.2,348.1,-0.7,1.8,2471.442,13.29,0.019,139.1
2023-07-29T07:16:03,42.805,6.029,0.003,-0.011,0.006,103.0,102.0,102.0,13.4,1505.2,351.5,-0.8,1.8,2471.394,13.29,0.011,164.7
2023-07-29T07:19:03,42.805,6.029,0.017,-0.015,-0.023,102.0,102.0,102.0,13.3,1505.2,329.2,-0.8,1.8,2471.413,13.29,0.022,131.4
2023-07-29T07:22:03,42.805,6.029,0.003,0.003,-0.031,103.0,102.0,102.0,13.3,1505.2,342.7,-0.8,1.8,2471.409,13.29,0.004,45.0
2023-07-29T07:25:03,42.805,6.029,0.004,-0.012,-0.018,101.0,103.0,102.0,13.4,1505.2,337.3,-0.8,1.8,2471.354,13.29,0.012,161.6
2023-07-29T07:28:03,42.805,6.029,0.006,-0.025,-0.035,101.0,103.0,102.0,13.3,1505.2,336.8,-0.8,1.8,2471.402,13.29,0.025,166.5
2023-07-29T07:31:03,42.805,6.029,0.043,-0.005,-0.025,103.0,103.0,102.0,13.4,1505.2,331.9,-0.8,1.8,2471.387,13.29,0.043,96.6
2023-07-29T07:34:03,42.805,6.029,0.02,-0.007,-0.028,101.0,103.0,102.0,13.4,1505.2,335.9,-0.8,1.8,2471.379,13.29,0.021,109.3
2023-07-29T07:37:03,42.805,6.029,0.036,-0.015,-0.007,102.0,103.0,103.0,13.4,1505.2,322.9,-0.8,1.8,2471.402,13.29,0.039,112.6
2023-07-29T07:40:03,42.805,6.029,0.007,-0.037,-0.056,104.0,102.0,102.0,13.4,1505.2,339.3,-0.7,1.8,2471.358,13.29,0.037,169.3
2023-07-29T07:43:03,42.805,6.029,0.001,-0.03,-0.05,102.0,103.0,101.0,13.4,1505.2,332.1,-0.8,1.8,2471.382,13.29,0.03,178.1
2023-07-29T07:46:03,42.805,6.029,-0.01,-0.023,-0.041,103.0,102.0,102.0,13.4,1505.2,354.5,-0.7,1.8,2471.408,13.29,0.025,203.5
2023-07-29T07:49:03,42.805,6.029,0.022,-0.024,-0.038,103.0,102.0,101.0,13.3,1505.2,343.7,-0.8,1.8,2471.396,13.29,0.032,137.5
2023-07-29T07:52:03,42.805,6.029,0.017,-0.022,-0.044,102.0,102.0,102.0,13.4,1505.2,330.6,-0.8,1.8,2471.379,13.29,0.027,142.3
2023-07-29T07:55:03,42.805,6.029,0.02,-0.016,-0.029,104.0,102.0,102.0,13.4,1505.2,353.4,-0.8,1.8,2471.355,13.29,0.025,128.7
2023-07-29T07:58:03,42.805,6.029,0.05,-0.01,-0.02,102.0,103.0,102.0,13.4,1505.2,326.8,-0.8,1.8,2471.368,13.29,0.05,101.3
2023-07-29T08:04:03,42.805,6.029,0.016,-0.006,-0.035,103.0,103.0,102.0,13.4,1505.2,332.5,-0.8,1.8,2471.38,13.28,0.017,110.6
2023-07-29T08:07:03,42.805,6.029,0.014,-0.022,-0.015,103.0,103.0,101.0,13.4,1505.2,349.1,-0.8,1.8,2471.384,13.28,0.026,147.5
2023-07-29T08:10:03,42.805,6.029,-0.006,-0.021,-0.036,103.0,102.0,101.0,13.4,1505.2,341.5,-0.8,1.8,2471.411,13.29,0.021,195.9
2023-07-29T08:13:03,42.805,6.029,0.012,-0.032,-0.024,102.0,103.0,102.0,13.4,1505.2,347.7,-0.7,1.8,2471.389,13.29,0.034,159.4
2023-07-29T08:16:03,42.805,6.029,0.012,-0.013,-0.064,104.0,102.0,102.0,13.3,1505.2,327.5,-0.8,1.8,2471.363,13.29,0.017,137.3
2023-07-29T08:19:03,42.805,6.029,0.002,-0.016,-0.024,102.0,101.0,102.0,13.3,1505.2,344.5,-0.8,1.8,2471.382,13.29,0.016,172.9
2023-07-29T08:22:03,42.805,6.029,0.024,-0.026,-0.018,102.0,103.0,101.0,13.3,1505.2,340.7,-0.8,1.8,2471.387,13.29,0.035,137.3
2023-07-29T08:25:03,42.805,6.029,-0.016,-0.007,-0.055,102.0,103.0,101.0,13.4,1505.2,322.2,-0.7,1.8,2471.368,13.29,0.017,246.4
2023-07-29T08:28:03,42.805,6.029,0.02,-0.023,-0.048,103.0,103.0,101.0,13.4,1505.2,343.8,-0.8,1.8,2471.359,13.29,0.03,139.0
2023-07-29T08:31:03,42.805,6.029,0.021,-0.022,-0.021,102.0,102.0,103.0,13.4,1505.2,345.0,-0.8,1.8,2471.402,13.29,0.03,136.3
2023-07-29T08:34:03,42.805,6.029,0.016,-0.024,-0.001,103.0,100.0,101.0,13.4,1505.2,349.5,-0.7,1.8,2471.358,13.29,0.028,146.3
2023-07-29T08:37:03,42.805,6.029,0.019,-0.022,-0.013,102.0,103.0,101.0,13.3,1505.2,324.5,-0.8,1.8,2471.327,13.29,0.029,139.2
2023-07-29T08:40:03,42.805,6.029,0.028,-0.029,-0.04,103.0,102.0,103.0,13.4,1505.2,342.5,-0.8,1.8,2471.324,13.29,0.04,136.0
2023-07-29T08:43:03,42.805,6.029,0.008,-0.013,-0.057,102.0,102.0,101.0,13.4,1505.2,335.0,-0.7,1.8,2471.35,13.29,0.015,148.4
2023-07-29T08:46:03,42.805,6.029,0.017,-0.007,-0.014,102.0,102.0,102.0,13.3,1505.2,325.5,-0.8,1.8,2471.351,13.29,0.018,112.4
2023-07-29T08:49:03,42.805,6.029,0.007,-0.033,-0.047,103.0,103.0,101.0,13.4,1505.2,336.1,-0.7,1.8,2471.362,13.29,0.033,168.0
2023-07-29T08:52:03,42.805,6.029,0.031,-0.028,-0.036,103.0,102.0,102.0,13.4,1505.2,341.9,-0.7,1.8,2471.347,13.29,0.041,132.1
2023-07-29T08:55:03,42.805,6.029,0.019,-0.021,-0.011,103.0,101.0,101.0,13.4,1505.2,349.6,-0.8,1.8,2471.316,13.29,0.028,137.9
2023-07-29T08:58:03,42.805,6.029,0.016,-0.013,-0.023,102.0,103.0,102.0,13.4,1505.2,338.5,-0.8,1.8,2471.306,13.29,0.02,129.1
2023-07-29T09:04:03,42.805,6.029,0.007,-0.04,-0.059,103.0,102.0,100.0,13.3,1505.2,340.8,-0.8,1.8,2471.378,13.28,0.04,170.1
2023-07-29T09:07:03,42.805,6.029,0.013,-0.01,-0.016,102.0,102.0,101.0,13.4,1505.2,334.9,-0.8,1.8,2471.385,13.28,0.016,127.6
2023-07-29T09:10:03,42.805,6.029,0.065,-0.01,-0.013,101.0,102.0,101.0,13.4,1505.2,324.2,-0.8,1.8,2471.376,13.28,0.065,98.7
2023-07-29T09:13:03,42.805,6.029,0.023,-0.014,-0.048,104.0,103.0,100.0,13.4,1505.2,332.1,-0.7,1.8,2471.37,13.29,0.026,121.3
2023-07-29T09:16:03,42.805,6.029,0.026,-0.031,0.006,102.0,103.0,102.0,13.4,1505.2,351.7,-0.8,1.8,2471.35,13.29,0.04,140.0
2023-07-29T09:19:03,42.805,6.029,0.031,0.008,0.011,104.0,101.0,101.0,13.3,1505.2,352.0,-0.7,1.8,2471.322,13.29,0.032,75.5
2023-07-29T09:22:03,42.805,6.029,0.0,-0.025,-0.036,101.0,102.0,102.0,13.4,1505.2,344.2,-0.8,1.8,2471.327,13.29,0.025,180.0
2023-07-29T09:25:03,42.805,6.029,0.0,-0.011,-0.019,102.0,102.0,102.0,13.4,1505.2,348.9,-0.7,1.8,2471.338,13.29,0.011,180.0
2023-07-29T09:28:03,42.805,6.029,0.027,-0.032,-0.014,102.0,103.0,103.0,13.4,1505.2,345.6,-0.8,1.8,2471.367,13.29,0.041,139.8
2023-07-29T09:31:03,42.805,6.029,0.028,-0.038,-0.063,103.0,102.0,100.0,13.3,1505.2,349.9,-0.8,1.8,2471.343,13.29,0.047,143.6
2023-07-29T09:34:03,42.805,6.029,0.028,-0.022,-0.07,102.0,102.0,101.0,13.4,1505.2,322.5,-0.7,1.8,2471.34,13.29,0.035,128.2
2023-07-29T09:37:03,42.805,6.029,0.032,-0.009,-0.007,101.0,101.0,103.0,13.4,1505.2,322.3,-0.8,1.8,2471.34,13.29,0.033,105.7
2023-07-29T09:40:03,42.805,6.029,0.047,-0.043,-0.054,102.0,102.0,101.0,13.4,1505.2,332.4,-0.8,1.8,2471.314,13.29,0.063,132.5
2023-07-29T09:43:03,42.805,6.029,0.007,-0.04,-0.057,102.0,103.0,101.0,13.4,1505.2,341.2,-0.8,1.8,2471.336,13.29,0.04,170.1
2023-07-29T09:46:03,42.805,6.029,0.033,-0.04,-0.034,103.0,103.0,102.0,13.3,1505.2,338.8,-0.7,1.8,2471.318,13.29,0.051,140.5
2023-07-29T09:49:03,42.805,6.029,0.014,-0.027,-0.053,104.0,101.0,102.0,13.3,1505.2,334.8,-0.8,1.8,2471.319,13.29,0.03,152.6
2023-07-29T09:52:03,42.805,6.029,0.028,-0.039,-0.027,103.0,102.0,102.0,13.4,1505.2,343.5,-0.8,1.8,2471.351,13.29,0.048,144.3